User: anonymous   Login
Location: Unspecified
(0.0000°N, 0.0000°E)
Time: 23:03:35
(UTC+01:00)
Language:

H-2A R/B - Orbit

View from above orbital plane
View from above orbital plane
View from above satellite
View from above satellite

Ground track
Ground track

The orbit data is extracted from the following two-line orbital elements,

1 26899U 01038B   14356.06059859  .00002025  00000-0  59338-3 0  1001
2 26899 028.1131 071.9401 7149613 310.3178 323.1692 02.44216604114111
Epoch (UTC): 22 December 2014 01:27:15
Eccentricity: 0.7149613
inclination: 28.1131°
perigee height: 261 km
apogee height: 33567 km
right ascension of ascending node: 71.9401°
argument of perigee: 310.3178°
revolutions per day: 2.44216604
mean anomaly at epoch: 323.1692°
orbit number at epoch: 11411

The dashed part of the orbit path shows where the satellite is in the earth's shadow,  

DLR